Regional Weather Roundup
Issued by NWS Kansas City/Pleasant Hill, MO

Home | Current Version | Previous Version | Graphics & Text | Print | Product List | Glossary Off
Versions: 1 2 3 4 5 6 7 8 9 10 11 12 13 14 15 16 17 18 19 20 21 22 23 24 25 26 27 28 29 30 31 32 33 34 35 36 37 38 39 40 41 42 43 44 45 46 47 48 49 50

000
ASUS43 KEAX 201010
RWREAX

WEATHER ROUNDUP FOR EASTERN KANSAS AND NORTHWEST MISSOURI
NATIONAL WEATHER SERVICE KANSAS CITY/PLEASANT HILL MO
400 AM CST SAT DEC 20 2014

KSZ040-057-103>105-MOZ028-029-037-043-201100-
...KANSAS CITY METROPOLITAN AREA...

CITY           SKY/WX    TMP DP  RH WIND       PRES   REMARKS
K.C. INTL      CLOUDY    32  31  96 S5        30.19F FOG     WCI  27
K.C. DOWNTOWN  CLOUDY    35  32  88 SW3       30.20F
LEES SUMMIT    CLOUDY    34  31  88 SW3       30.19F
OLATHE - IXD   CLOUDY    32  30  92 SW5       30.19F WCI  27
OLATHE - OJC   CLOUDY    33  32  96 SW5       30.18F WCI  29
LAWRENCE       CLOUDY    33  29  85 SE6       30.19F WCI  28

$$

MOZ001>008-011>017-020>025-030>033-038>040-044>046-053-054-201100-
...NORTHERN AND CENTRAL MISSOURI...

CITY           SKY/WX    TMP DP  RH WIND       PRES   REMARKS
ST. JOSEPH     CLOUDY    32  29  88 S8        30.19F WCI  25
MOSBY          CLOUDY    32  32 100 CALM      30.21S
WARRENSBURG    FOG       36  34  93 W5        30.21R VSB 1/2 WCI  32
WHITEMAN AFB   FOG       37  37  98 SW2       30.20S VSB 1
CLINTON        FOG       37  37 100 CALM      30.20F VSB 1/2
SEDALIA        FOG       37  36  96 CALM      30.20F VSB 1/2
WARSAW         NOT AVBL
MARSHALL       FOG       37  37 100 CALM      30.22R VSB 1/2
CHILLICOTHE      N/A     34  33  96 CALM      30.21F
MOBERLY        FOG       34  32  93 SE5       30.22S VSB 3/4 WCI  30
KIRKSVILLE     CLOUDY    32  32 100 S7        30.21F FOG     WCI  26

$$

MOZ041-047>049-056>058-063>065-088>090-097-201100-
...EASTERN AND SOUTHERN MISSOURI...

CITY           SKY/WX    TMP DP  RH WIND       PRES   REMARKS
ST. LOUIS INTL CLOUDY    36  26  67 S6        30.26S WCI  31
SPIRIT OF STL  CLOUDY    35  30  82 CALM      30.25S
COLUMBIA       CLOUDY    35  33  92 SE7       30.21F FOG     WCI  29
JEFFERSON CITY CLOUDY    37  33  85 E3        30.24S FOG
MEXICO         CLOUDY   N/A N/A N/A SE6       30.22F HAZE
HANNIBAL       CLOUDY    34  28  80 CALM      30.24R
ROLLA          CLOUDY    34  32  92 S6        30.20S FOG     WCI  29
LEBANON        CLOUDY    36  34  93 CALM      30.20S
OSAGE BEACH    CLOUDY    37  34  87 CALM      30.21F
SPRINGFIELD    CLOUDY    37  36  96 S6        30.19S FOG     WCI  32
BRANSON        FOG       37  36  93 CALM      30.19F VSB<1/4
NEVADA         CLOUDY    36  36 100 CALM      30.21F FOG
JOPLIN         CLOUDY    38  37  97 W3        30.21F FOG
WEST PLAINS    CLOUDY    34  31  88 E3        30.20F FOG

$$

IAZ060-094-KSZ022-034>040-054-083-096-NEZ052-066-093-201100-
...KANSAS...SOUTHEAST NEBRASKA AND IOWA...

CITY           SKY/WX    TMP DP  RH WIND       PRES   REMARKS
TOPEKA         CLOUDY    35  30  82 SE6       30.18F WCI  30
MANHATTAN      CLEAR     30  29  96 SW3       30.14S
EMPORIA        CLOUDY    33  31  92 S8        30.17R WCI  26
CHANUTE        CLOUDY    35  34  96 S5        30.21F FOG     WCI  31
WICHITA        PTCLDY    34  31  88 S10       30.15F WCI  26
OMAHA          FRZ DRZL  31  30  96 SE10      30.13F FOG     WCI  22
LINCOLN        CLOUDY    33  31  92 SE7       30.10F FOG     WCI  27
FALLS CITY     CLOUDY    32  29  88 SE13      30.13F WCI  22
LAMONI         CLOUDY    31  30  96 S5        30.17F FOG     WCI  26
DES MOINES     LGT SNOW  32  29  88 SW8       30.18S FOG     WCI  25

$$




USA.gov is the U.S. government's official web portal to all federal, state and local government web resources and services.